Regional Weather Roundup
Issued by NWS Cleveland, OH

Home | Current Version | Previous Version | Text Only | Print | Product List | Glossary Off
Versions: 1 2 3 4 5 6 7 8 9 10 11 12 13 14 15 16 17 18 19 20 21 22 23 24 25 26 27 28 29 30 31 32 33 34 35 36 37 38 39 40 41 42 43 44 45 46 47 48 49 50

524
ASUS41 KCLE 250910
RWRCLE
OHIO REGIONAL WEATHER ROUNDUP
NATIONAL WEATHER SERVICE CLEVELAND, OH
500 AM EDT TUE JUL 25 2017

NOTE: "FAIR" INDICATES FEW OR NO CLOUDS BELOW 12,000 FEET WITH NO
SIGNIFICANT WEATHER AND/OR OBSTRUCTIONS TO VISIBILITY.

OHZ001>008-015>018-024>027-034-035-043-044-251000-
   NORTHWEST OHIO

CITY           SKY/WX    TMP DP  RH WIND       PRES   REMARKS
DEFIANCE       CLEAR    N/A N/A N/A CALM      30.16S
FINDLAY        CLEAR     57  54  89 NW5       30.15R
TOLEDO EXPRESS CLEAR     55  53  93 CALM      30.16R
TOLEDO EXEC    PTCLDY    58  54  86 NW3       30.16R
LIMA           CLEAR     54  53  97 CALM      30.15S
$$

OHZ009>014-019>023-028>033-038-089-251000-
   NORTHEAST OHIO

CITY           SKY/WX    TMP DP  RH WIND       PRES   REMARKS
CLE-HOPKINS    MOCLDY    67  55  65 N12       30.13R
CLE-LAKEFRONT  CLOUDY    67  56  67 N13G20    30.10R
CUY CO. ARPT   NOT AVBL
LORAIN-ELYRIA  PTCLDY    62  51  67 NE7       30.13R
ASHTABULA      CLOUDY    63  59  87 CALM      30.11R
AKRON-CANTON   CLOUDY    64  54  69 N6        30.11R
WOOSTER        CLOUDY    61  57  87 N5        30.13R
MANSFIELD      CLOUDY    60  57  89 NW3       30.14S
YOUNGSTOWN     CLOUDY    61  57  87 N6        30.10R
$$

OHZ042-051>053-060>062-070>072-077>081-251000-
  SOUTHWEST OHIO

CITY           SKY/WX    TMP DP  RH WIND       PRES   REMARKS
CINC-COVINGTON PTCLDY    65  61  87 E10       30.13R
CINC-LUNKEN    CLEAR     62  61  96 CALM      30.14R
HAMILTON       CLEAR     59  58  96 CALM      30.15R
DAYTON         CLEAR     58  56  93 CALM      30.16R
WRIGHT-PAT AFB CLEAR     60  60 100 CALM      30.14R
DAYTON GENERAL CLEAR     61  58  90 CALM      30.14R
WILMINGTON     CLEAR     58  58 100 E3        30.13R
$$

OHZ036-037-039>041-045>050-054>059-063>069-073>076-082>088-251000-
  CENTRAL AND SOUTHEAST OHIO

CITY           SKY/WX    TMP DP  RH WIND       PRES   REMARKS
COLUMBUS       CLEAR     59  59 100 CALM      30.13R
OSU AIRPORT    CLEAR     59  59 100 NW3       30.13R
BOLTON FIELD   CLEAR     56  56 100 CALM      30.15R FOG
RICKENBACK AFB CLEAR     59  59  99 CALM      30.14R
NEWARK         CLEAR     56  55  97 CALM      30.13R
MARION         CLEAR     57  55  93 CALM      30.14S
LANCASTER      PTCLDY    56  55  97 CALM      30.14R FOG
ZANESVILLE     PTCLDY    58  56  93 CALM      30.13R
NEW PHILLY     NOT AVBL
$$




USA.gov is the U.S. government's official web portal to all federal, state and local government web resources and services.